[[{"header":{"parameterUnit":"m.s-1","parameterCategory":1,"la1":30.2991,"la2":30.254,"lo1":-89.0895,"lo2":-89.0444,"dy":0.0017,"dx":0.0017,"nx":28,"ny":28,"refTime":"2025-09-05T21:00:00:Z","depth":0,"parameterNumber":2,"parameterNumberName":"U-component_of_WINDS"},"data":[0,0,0,0,0,0,0,0,0,0,0,0,0,0,0,0,0,0,0,0,0,0,0,0,0,0,0,0,0,0,0,0,0,0,0,0,0,0,0,0,0,0,0,0,0,0,0,0,0,0,0,0,0,0,0,0,0,0,-1.3245,-1.3245,0,-1.3219,-1.3218,-1.3218,-1.3172,-1.3172,-1.3171,-1.317,-1.3142,-1.3142,-1.3142,0,0,0,0,0,0,0,0,0,0,0,0,0,-1.3258,-1.3258,-1.3245,-1.3245,-1.3245,-1.3219,-1.3218,-1.3218,-1.3173,-1.3172,-1.3171,-1.317,-1.3142,-1.3142,-1.3142,0,0,0,0,0,0,0,0,0,0,0,0,0,-1.3244,-1.3258,-1.3246,-1.3219,-1.3216,-1.3219,-1.3218,-1.3218,-1.3173,-1.3172,-1.317,-1.3169,-1.3142,-1.3142,-1.3142,-1.3168,0,0,-1.3143,-1.3143,0,0,0,0,0,0,0,0,-1.3245,-1.3244,-1.3223,-1.3221,-1.3218,-1.3198,-1.3212,-1.3201,-1.3173,-1.3189,-1.317,-1.3168,-1.3162,-1.316,-1.3158,-1.3167,-1.3166,-1.3143,-1.3143,-1.3143,-1.3143,0,0,0,0,0,0,0,-1.3246,-1.3245,-1.3235,-1.3223,-1.322,-1.3209,-1.3205,-1.321,-1.3183,-1.3188,-1.3184,-1.3182,-1.316,-1.3158,-1.3157,-1.3165,-1.3143,-1.3143,-1.3143,-1.3143,-1.3195,-1.3197,0,0,0,0,0,0,-1.3251,-1.3246,-1.3236,-1.3234,-1.3229,-1.321,-1.3206,-1.3205,-1.3183,-1.3178,-1.3183,-1.318,-1.3158,-1.3157,-1.3156,-1.3185,-1.3143,-1.3143,-1.3143,-1.3194,-1.3196,-1.3197,0,0,0,0,0,0,-1.3251,-1.325,-1.3237,-1.3239,-1.3236,-1.3211,-1.3211,-1.3206,-1.3203,-1.3179,-1.3174,-1.3186,-1.3157,-1.3156,-1.3166,-1.3183,-1.3143,-1.3143,-1.3192,-1.3194,-1.3196,-1.3244,0,0,0,0,0,0,-1.3252,-1.3251,-1.326,-1.3239,-1.3236,-1.3247,-1.3212,-1.3206,-1.3204,-1.3199,-1.318,-1.3176,-1.3156,-1.3166,-1.3166,-1.3183,-1.3143,-1.3191,-1.3193,-1.3196,-1.324,-1.3247,-1.3253,0,0,0,0,0,-1.3252,-1.3274,-1.3261,-1.326,-1.3248,-1.3248,-1.3247,-1.3223,-1.3205,-1.3215,-1.3199,-1.3177,-1.3182,-1.3167,-1.3167,-1.3184,-1.3189,-1.3193,-1.3195,-1.3238,-1.3246,-1.3253,0,0,0,0,0,0,-1.3298,-1.3271,-1.3256,-1.3272,-1.3263,-1.3241,-1.3252,-1.3232,-1.3228,-1.3224,-1.3195,-1.3192,-1.3206,-1.3196,-1.318,-1.3208,-1.3182,-1.3185,-1.3214,-1.3222,-1.3228,-1.323,-1.3143,0,0,0,0,0,-1.331,-1.3312,-1.3289,-1.3305,-1.3302,-1.3278,-1.3277,-1.326,-1.3249,-1.3245,-1.323,-1.3221,-1.322,-1.322,-1.3218,-1.3239,-1.3234,-1.3251,-1.3257,-1.3262,-1.3265,-1.3276,-1.3283,-1.3207,-1.3207,-1.3207,0,0,-1.3334,-1.332,-1.3323,-1.3314,-1.3305,-1.3309,-1.3275,-1.328,-1.3282,-1.3246,-1.3255,-1.3244,-1.3231,-1.3247,-1.3253,-1.3239,-1.3285,-1.3266,-1.327,-1.327,-1.328,-1.3287,-1.3293,-1.3209,-1.3209,-1.3208,0,0,-1.3381,-1.337,-1.3383,-1.3375,-1.3361,-1.3345,-1.3349,-1.333,-1.3321,-1.3329,-1.3302,-1.3305,-1.3304,-1.3297,-1.3293,-1.3338,-1.3317,-1.3338,-1.337,-1.3381,-1.3387,-1.3392,-1.3408,-1.3415,-1.3341,-1.3341,-1.3341,0,-1.3413,-1.3417,-1.3392,-1.3399,-1.3396,-1.3363,-1.3376,-1.3369,-1.3356,-1.3355,-1.334,-1.3339,-1.3328,-1.3342,-1.3353,-1.3351,-1.3354,-1.334,-1.3388,-1.3393,-1.3397,-1.3413,-1.3419,-1.3344,-1.3343,-1.3343,-1.3343,0,-1.3457,-1.3461,-1.3473,-1.3461,-1.3459,-1.3469,-1.3446,-1.3447,-1.3431,-1.3417,-1.3426,-1.3412,-1.3407,-1.3409,-1.3393,-1.3421,-1.3413,-1.3393,-1.3366,-1.3408,-1.3422,-1.3427,-1.3348,-1.3347,-1.3346,-1.3345,0,0,-1.3531,-1.3506,-1.3511,-1.3506,-1.3489,-1.3491,-1.35,-1.3495,-1.3497,-1.349,-1.3496,-1.3497,-1.3479,-1.3475,-1.3458,-1.3467,-1.3504,-1.3446,-1.3446,-1.3458,-1.3535,-1.355,-1.3557,-1.349,-1.3491,-1.3492,-1.3536,0,-1.3575,-1.3588,-1.3566,-1.3585,-1.3588,-1.3557,-1.3565,-1.3556,-1.3543,-1.3544,-1.353,-1.3531,-1.3507,-1.3505,-1.3513,-1.3498,-1.3519,-1.3494,-1.3497,-1.3497,-1.3501,-1.3564,-1.358,-1.3622,-1.3541,-1.3542,-1.3543,0,-1.3627,-1.3622,-1.3641,-1.3624,-1.3624,-1.3632,-1.3626,-1.3627,-1.3616,-1.3606,-1.3602,-1.3582,-1.3589,-1.3564,-1.3574,-1.3558,-1.3558,-1.3551,-1.3552,-1.3551,-1.3523,-1.3566,-1.3635,-1.3641,-1.3551,-1.355,-1.355,0,-1.368,-1.3678,-1.3689,-1.3685,-1.3665,-1.3671,-1.3663,-1.3651,-1.365,-1.3645,-1.3644,-1.364,-1.3638,-1.3636,-1.3615,-1.3598,-1.3628,-1.3601,-1.3621,-1.3621,-1.3628,-1.3628,-1.3699,-1.3628,-1.3628,-1.3628,-1.3628,0,-1.373,-1.3743,-1.3712,-1.372,-1.3733,-1.3708,-1.3722,-1.3711,-1.3701,-1.3706,-1.3679,-1.3684,-1.3656,-1.3658,-1.3642,-1.3653,-1.3653,-1.3645,-1.3641,-1.3648,-1.3649,-1.3647,-1.3644,-1.363,-1.3629,-1.3629,-1.3629,0,-1.3792,-1.3771,-1.3782,-1.3762,-1.3758,-1.3769,-1.3752,-1.3758,-1.3744,-1.375,-1.375,-1.3727,-1.3729,-1.3708,-1.3704,-1.3694,-1.3713,-1.3703,-1.3716,-1.3713,-1.3735,-1.3733,-1.3807,-1.3815,-1.3739,-1.374,-1.3741,0,-1.3826,-1.3835,-1.3816,-1.3818,-1.3811,-1.3813,-1.3812,-1.3787,-1.3787,-1.3776,-1.3784,-1.3782,-1.378,-1.3784,-1.3767,-1.3765,-1.3755,-1.3781,-1.3754,-1.3761,-1.3756,-1.3756,-1.3757,-1.3787,-1.3788,-1.3788,-1.3789,0,-1.3888,-1.3878,-1.3877,-1.3873,-1.3872,-1.3868,-1.3862,-1.3864,-1.3838,-1.3839,-1.384,-1.3838,-1.3835,-1.3835,-1.3829,-1.3821,-1.3801,-1.3798,-1.3802,-1.3809,-1.3817,-1.3814,-1.3732,-1.3796,-1.3795,-1.3795,-1.3794,-1.3794,-1.3937,-1.3944,-1.3932,-1.3932,-1.3925,-1.392,-1.3925,-1.3912,-1.3912,-1.3907,-1.3893,-1.3897,-1.3886,-1.3877,-1.3871,-1.3873,-1.3861,-1.3867,-1.3869,-1.3871,-1.3875,-1.3817,-1.3872,-1.3872,-1.3872,-1.3872,-1.3871,0,-1.3999,-1.399,-1.399,-1.3982,-1.3983,-1.3963,-1.3956,-1.3958,-1.3961,-1.3953,-1.3951,-1.3953,-1.3952,-1.3936,-1.3934,-1.3939,-1.393,-1.3939,-1.3939,-1.3937,-1.3887,-1.3883,-1.3947,-1.3947,-1.3947,-1.3947,-1.3947,-1.3947,-1.4031,-1.4042,-1.403,-1.4038,-1.4029,-1.4032,-1.4029,-1.4025,-1.4018,-1.4021,-1.4021,-1.401,-1.3999,-1.3996,-1.3994,-1.399,-1.399,-1.4003,-1.3995,-1.3948,-1.3941,-1.3934,-1.3931,-1.4003,-1.4003,-1.4046,-1.4046,-1.4047]},{"header":{"parameterUnit":"m.s-1","parameterCategory":1,"la1":30.2991,"la2":30.254,"lo1":-89.0895,"lo2":-89.0444,"dy":0.0017,"dx":0.0017,"nx":28,"ny":28,"refTime":"2025-09-05T21:00:00:Z","depth":0,"parameterNumber":3,"parameterNumberName":"V-component_of_WINDS"},"data":[0,0,0,0,0,0,0,0,0,0,0,0,0,0,0,0,0,0,0,0,0,0,0,0,0,0,0,0,0,0,0,0,0,0,0,0,0,0,0,0,0,0,0,0,0,0,0,0,0,0,0,0,0,0,0,0,0,0,2.9193,2.9193,0,2.9162,2.9162,2.9162,2.9154,2.9154,2.9154,2.9154,2.9117,2.9116,2.9115,0,0,0,0,0,0,0,0,0,0,0,0,0,2.9242,2.9241,2.9193,2.9193,2.9193,2.9162,2.9162,2.9162,2.9154,2.9154,2.9154,2.9154,2.9118,2.9116,2.9115,0,0,0,0,0,0,0,0,0,0,0,0,0,2.9216,2.924,2.9194,2.9185,2.9184,2.9163,2.9162,2.9161,2.9154,2.9154,2.9154,2.9155,2.9118,2.9116,2.9115,2.9097,0,0,2.9109,2.9108,0,0,0,0,0,0,0,0,2.9218,2.9215,2.9187,2.9186,2.9185,2.9162,2.9165,2.914,2.9154,2.9165,2.9154,2.9155,2.9132,2.9129,2.9122,2.9096,2.9094,2.9109,2.9108,2.9107,2.9107,0,0,0,0,0,0,0,2.922,2.9216,2.9181,2.9186,2.9185,2.9182,2.9178,2.916,2.9147,2.9164,2.9164,2.916,2.9131,2.9124,2.9121,2.9093,2.9109,2.9108,2.9106,2.9106,2.9051,2.9051,0,0,0,0,0,0,2.9223,2.9217,2.9182,2.918,2.9203,2.9181,2.9177,2.9169,2.9147,2.9144,2.916,2.916,2.9127,2.9123,2.912,2.9098,2.9107,2.9106,2.9105,2.9051,2.9051,2.905,0,0,0,0,0,0,2.9225,2.922,2.9183,2.9199,2.9194,2.9179,2.9171,2.9168,2.9161,2.9144,2.9141,2.9155,2.9127,2.9122,2.9103,2.9097,2.9105,2.9103,2.9052,2.9051,2.9051,2.9054,0,0,0,0,0,0,2.9226,2.9221,2.9215,2.9199,2.9193,2.9169,2.917,2.9167,2.9159,2.9158,2.9139,2.9136,2.9127,2.9106,2.9102,2.9094,2.9102,2.9052,2.9051,2.9051,2.9055,2.9054,2.9053,0,0,0,0,0,2.9228,2.9216,2.9215,2.9211,2.9186,2.9168,2.9165,2.9156,2.9158,2.9152,2.9141,2.9136,2.9098,2.9104,2.9099,2.9091,2.9053,2.9052,2.9051,2.9055,2.9054,2.9053,0,0,0,0,0,0,2.923,2.9214,2.9212,2.9195,2.9184,2.9167,2.9158,2.9155,2.9141,2.9141,2.9129,2.9125,2.9107,2.9097,2.9104,2.9073,2.9075,2.9073,2.908,2.9079,2.9078,2.9081,2.91,0,0,0,0,0,2.9229,2.9218,2.9204,2.919,2.9185,2.9173,2.9165,2.9159,2.9146,2.914,2.9128,2.9113,2.9098,2.9088,2.9073,2.9054,2.9049,2.9045,2.9045,2.9044,2.9042,2.9031,2.9029,2.9047,2.9047,2.9048,0,0,2.9226,2.9216,2.9209,2.919,2.9181,2.9168,2.9168,2.9155,2.9145,2.9137,2.9119,2.911,2.9093,2.9073,2.9064,2.9065,2.9036,2.9043,2.9043,2.9041,2.903,2.9028,2.9026,2.9047,2.9047,2.9047,0,0,2.9214,2.9206,2.9194,2.9184,2.917,2.9163,2.916,2.9144,2.9138,2.912,2.9114,2.9101,2.9075,2.9064,2.9054,2.9039,2.9034,2.9034,2.903,2.9019,2.9018,2.9016,2.901,2.9008,2.9033,2.9033,2.9033,0,2.9212,2.9194,2.9187,2.9175,2.9166,2.9161,2.9148,2.9138,2.9119,2.9113,2.9114,2.9082,2.907,2.9048,2.9045,2.9038,2.9033,2.9036,2.9019,2.9017,2.9016,2.901,2.9008,2.9033,2.9033,2.9033,2.9033,0,2.9191,2.9179,2.9171,2.9155,2.9145,2.9132,2.9122,2.9113,2.9109,2.9101,2.9082,2.9068,2.905,2.9045,2.9039,2.9021,2.9022,2.9021,2.9023,2.9014,2.9008,2.9006,2.9033,2.9033,2.9033,2.9033,0,0,2.9179,2.9161,2.9158,2.915,2.9135,2.9124,2.9111,2.9095,2.9087,2.9074,2.9062,2.9041,2.904,2.903,2.9023,2.9013,2.9002,2.9013,2.9013,2.9011,2.898,2.8981,2.8978,2.8999,2.8998,2.8998,2.8981,0,2.9165,2.9142,2.9136,2.9116,2.9104,2.91,2.9088,2.9076,2.9068,2.9056,2.9046,2.9032,2.9032,2.9026,2.9016,2.9005,2.8995,2.9006,2.8985,2.8985,2.8989,2.8975,2.8975,2.896,2.8979,2.8979,2.8979,0,2.9145,2.9134,2.9113,2.91,2.9094,2.9084,2.9069,2.9058,2.9044,2.9039,2.9028,2.9023,2.9007,2.9011,2.8988,2.8996,2.8987,2.898,2.898,2.8976,2.8981,2.8971,2.8955,2.8953,2.8975,2.8975,2.8975,0,2.9137,2.9117,2.9102,2.9096,2.908,2.9073,2.9065,2.9052,2.9044,2.903,2.9024,2.9009,2.9,2.8987,2.8977,2.8981,2.8955,2.8958,2.8949,2.8949,2.8943,2.8943,2.8925,2.8939,2.8939,2.8939,2.8939,0,2.9121,2.9109,2.9099,2.9089,2.9075,2.9068,2.9053,2.9045,2.9034,2.9022,2.9017,2.9005,2.8993,2.898,2.8972,2.8954,2.895,2.8944,2.8942,2.8944,2.8945,2.8937,2.8938,2.8938,2.8938,2.8938,2.8938,0,2.911,2.9103,2.9086,2.9073,2.907,2.9059,2.9047,2.9037,2.903,2.9015,2.9011,2.8998,2.8983,2.8972,2.8951,2.8945,2.8926,2.8924,2.8931,2.8929,2.8921,2.8922,2.8896,2.8892,2.891,2.891,2.891,0,2.91,2.909,2.9077,2.9069,2.9063,2.9051,2.9042,2.9034,2.9025,2.901,2.9001,2.8986,2.8973,2.8947,2.8935,2.8919,2.8916,2.8908,2.8913,2.8916,2.8915,2.8915,2.8914,2.8907,2.8907,2.8907,2.8907,0,2.9082,2.908,2.9069,2.9056,2.9047,2.9036,2.9025,2.9019,2.901,2.8999,2.8984,2.8974,2.8954,2.8938,2.8921,2.8911,2.8907,2.8906,2.8903,2.8904,2.8908,2.8905,2.8928,2.8906,2.8906,2.8906,2.8906,2.8906,2.9071,2.9062,2.9052,2.9039,2.9031,2.9021,2.9012,2.9004,2.8991,2.8975,2.8971,2.8955,2.8941,2.8918,2.8909,2.8895,2.8896,2.8891,2.889,2.8889,2.8888,2.8912,2.8892,2.8892,2.8892,2.8892,2.8892,0,2.9053,2.9046,2.9035,2.9021,2.9011,2.9011,2.8999,2.899,2.8976,2.8965,2.8953,2.8935,2.8919,2.8907,2.8891,2.8882,2.8879,2.8878,2.8878,2.8875,2.8889,2.8893,2.888,2.888,2.888,2.888,2.888,2.888,2.9042,2.9027,2.9024,2.9004,2.8997,2.8983,2.8976,2.8967,2.8958,2.8939,2.8927,2.8919,2.8907,2.889,2.8875,2.8872,2.8866,2.8864,2.886,2.8873,2.8874,2.8876,2.8879,2.8863,2.8863,2.8847,2.8847,2.8847]}]]